Location: Bennemühlen
(52.5740°N, 9.7135°E)
Time: 18:31:37
(UTC+00:00)

Injun/Solrad 3 - All Passes

Search period start: 18 February 2026 00:00
Search period end: 28 February 2026 00:00
Orbit: 873 x 983 km, 66.8° (Epoch: 18 February)

Date Brightness Start Highest point End Pass type
(mag) Time Alt. Az. Time Alt. Az. Time Alt. Az.
18 Feb - 09:21:54 10° SE 09:25:41 18° ESE 09:29:32 10° ENE daylight
18 Feb - 11:05:25 10° SSW 11:11:15 81° SE 11:17:16 10° NE daylight
18 Feb - 12:53:02 10° W 12:58:21 34° NNW 13:03:49 10° NE daylight
18 Feb - 14:42:10 10° NW 14:46:39 21° N 14:51:13 10° NE daylight
18 Feb - 16:29:58 10° NW 16:35:08 28° NNE 16:40:24 10° E daylight
18 Feb - 18:16:32 10° NW 18:22:40 70° NE 18:28:55 10° SE visible
18 Feb - 20:03:28 10° NW 20:08:47 31° WSW 20:14:11 10° S visible
19 Feb - 09:31:39 10° SSE 09:36:23 26° ESE 09:41:12 10° NE daylight
19 Feb - 11:16:27 10° SW 11:22:19 76° NW 11:28:21 10° NE daylight
19 Feb - 13:04:40 10° W 13:09:44 29° NNW 13:14:57 10° NE daylight
19 Feb - 14:53:42 10° NW 14:58:12 21° N 15:02:46 10° NE daylight
19 Feb - 16:41:05 10° NW 16:46:32 33° NNE 16:52:06 10° E daylight
19 Feb - 18:27:35 10° NW 18:33:45 89° SW 18:40:04 10° SE visible
19 Feb - 20:14:57 10° WNW 20:19:32 22° WSW 20:24:11 10° SSW visible
20 Feb - 09:41:52 10° S 09:47:10 37° ESE 09:52:35 10° NE daylight
20 Feb - 11:27:39 10° WSW 11:33:27 58° NW 11:39:24 10° NE daylight
20 Feb - 13:16:21 10° WNW 13:21:11 25° NNW 13:26:08 10° NE daylight
20 Feb - 15:05:07 10° NW 15:09:43 22° N 15:14:25 10° ENE daylight
20 Feb - 16:52:09 10° NW 16:57:52 40° NE 17:03:42 10° ESE daylight
20 Feb - 18:38:40 10° NW 18:44:45 67° WSW 18:51:00 10° SSE visible
20 Feb - 20:26:50 10° WNW 20:30:12 15° WSW 20:33:36 10° SW visible
21 Feb - 08:12:35 10° ESE 08:12:55 10° E 08:13:17 10° E daylight
21 Feb - 09:52:23 10° SSW 09:58:01 52° ESE 10:03:49 10° NE daylight
21 Feb - 11:39:02 10° WSW 11:44:40 45° NW 11:50:27 10° NE daylight
21 Feb - 13:28:02 10° WNW 13:32:40 23° NNW 13:37:24 10° NE daylight
21 Feb - 15:16:26 10° NW 15:21:14 24° NNE 15:26:08 10° ENE daylight
21 Feb - 17:03:11 10° NW 17:09:08 50° NE 17:15:13 10° ESE daylight
21 Feb - 18:49:49 10° NW 18:55:42 48° WSW 19:01:42 10° S visible
22 Feb - 08:20:09 10° SE 08:23:31 16° ESE 08:26:55 10° ENE daylight
22 Feb - 10:03:09 10° SSW 10:08:58 73° SE 10:14:57 10° NE daylight
22 Feb - 11:50:32 10° W 11:55:57 36° NNW 12:01:31 10° NE daylight
22 Feb - 13:39:40 10° NW 13:44:11 21° N 13:48:47 10° NE daylight
22 Feb - 15:27:38 10° NW 15:32:42 27° NNE 15:37:53 10° ENE daylight
22 Feb - 17:14:14 10° NW 17:20:19 64° NE 17:26:34 10° SE visible
22 Feb - 19:01:03 10° NW 19:06:33 35° WSW 19:12:10 10° S visible
23 Feb - 08:29:42 10° SSE 08:34:10 23° ESE 08:38:44 10° ENE daylight
23 Feb - 10:14:06 10° SW 10:19:59 84° NW 10:26:02 10° NE daylight
23 Feb - 12:02:08 10° W 12:07:19 30° NNW 12:12:37 10° NE daylight
23 Feb - 13:51:14 10° NW 13:55:43 21° N 14:00:18 10° NE daylight
23 Feb - 15:38:46 10° NW 15:44:07 31° NNE 15:49:36 10° E daylight
23 Feb - 17:25:16 10° NW 17:31:26 84° NE 17:37:45 10° SE visible
23 Feb - 19:12:28 10° WNW 19:17:21 25° WSW 19:22:18 10° SSW visible
24 Feb - 08:39:47 10° S 08:44:56 33° ESE 08:50:11 10° NE daylight
24 Feb - 10:25:16 10° SW 10:31:06 63° NW 10:37:06 10° NE daylight
24 Feb - 12:13:48 10° WNW 12:18:44 26° NNW 12:23:47 10° NE daylight
24 Feb - 14:02:41 10° NW 14:07:16 22° N 14:11:55 10° NE daylight
24 Feb - 15:49:50 10° NW 15:55:28 37° NNE 16:01:15 10° E daylight
24 Feb - 17:36:19 10° NW 17:42:29 74° SW 17:48:46 10° SSE visible
24 Feb - 19:24:10 10° WNW 19:28:02 17° WSW 19:31:57 10° SW visible
25 Feb - 08:50:12 10° S 08:55:45 47° ESE 09:01:27 10° NE daylight
25 Feb - 10:36:35 10° WSW 10:42:17 49° NW 10:48:08 10° NE daylight
25 Feb - 12:25:30 10° WNW 12:30:13 23° NNW 12:35:02 10° NE daylight
25 Feb - 14:14:01 10° NW 14:18:47 23° NNE 14:23:37 10° ENE daylight
25 Feb - 16:00:53 10° NW 16:06:46 46° NE 16:12:47 10° ESE daylight
25 Feb - 17:47:27 10° NW 17:53:26 54° WSW 17:59:33 10° SSE visible
25 Feb - 19:36:47 10° W 19:38:39 11° W 19:40:32 10° WSW visible
26 Feb - 07:18:30 10° SE 07:21:20 14° ESE 07:24:13 10° ENE daylight
26 Feb - 09:00:52 10° SSW 09:06:40 66° ESE 09:12:37 10° NE daylight
26 Feb - 10:48:03 10° WSW 10:53:33 39° NW 10:59:12 10° NE daylight
26 Feb - 12:37:09 10° WNW 12:41:43 22° N 12:46:22 10° NE daylight
26 Feb - 14:25:15 10° NW 14:30:15 26° NNE 14:35:22 10° ENE daylight
26 Feb - 16:11:54 10° NW 16:17:59 59° NE 16:24:12 10° ESE daylight
26 Feb - 17:58:39 10° NW 18:04:19 39° WSW 18:10:06 10° S visible
27 Feb - 07:27:47 10° SSE 07:31:59 21° ESE 07:36:14 10° ENE daylight
27 Feb - 09:11:47 10° SW 09:17:40 89° SE 09:23:44 10° NE daylight
27 Feb - 10:59:37 10° W 11:04:53 32° NNW 11:10:18 10° NE daylight
27 Feb - 12:48:45 10° NW 12:53:15 21° N 12:57:51 10° NE daylight
27 Feb - 14:36:25 10° NW 14:41:41 29° NNE 14:47:06 10° E daylight
27 Feb - 16:22:56 10° NW 16:29:07 77° NE 16:35:27 10° SE daylight
27 Feb - 18:10:00 10° NW 18:15:07 28° WSW 18:20:21 10° SSW visible
